CW3202 Weather Reports


time (UTC)temp
C
wind
direction
speed
KPH
gust
KPH
rain 1hr
cm
rain 24hr
cm
rain mn
cm
humidity
%
barometer
mb
20260903193325 12 19 4.8 14.5 0.00 0.00 1.96 97 1009.0
20260903192825 12 28 6.4 14.5 0.00 0.00 1.93 96 1009.2
20260903192324 12 18 11.3 14.5 0.00 0.00 1.91 96 1009.2
20260903191625 13 16 12.9 14.5 0.00 0.00 1.88 96 1009.2
20260903191124 13 26 8.0 9.7 0.00 0.00 1.85 96 1009.2
20260903190624 13 360 6.4 8.0 0.00 0.00 1.85 95 1009.2
20260903190125 13 360 8.0 8.0 0.00 0.00 1.85 95 1009.2
20260903185625 13 360 4.8 9.7 0.00 0.00 1.83 95 1009.2
20260903185124 13 360 4.8 9.7 0.00 0.00 1.83 94 1009.1
20260903184624 13 360 8.0 9.7 0.00 0.00 1.83 95 1009.1
20260903184125 13 360 8.0 9.7 0.00 0.00 1.83 95 1009.1
20260903183625 13 360 3.2 9.7 0.00 0.00 1.83 94 1009.0
20260903183124 13 360 9.7 9.7 0.00 0.00 1.83 95 1009.0
20260903182624 13 360 3.2 6.4 0.00 0.00 1.83 95 1009.0
20260903182124 13 360 3.2 8.0 0.00 0.00 1.83 95 1009.0
20260903181625 13 360 4.8 9.7 0.00 0.00 1.83 95 1009.0
20260903181124 13 360 8.0 9.7 0.00 0.00 1.83 95 1009.0
20260903180624 13 360 9.7 16.1 0.00 0.00 1.83 96 1008.9
20260903180125 13 360 8.0 16.1 0.00 0.00 1.83 97 1009.0
20260903175624 13 360 3.2 9.7 0.00 0.00 1.83 97 1008.9
20260903175124 13 360 6.4 8.0 0.00 0.00 1.83 97 1008.8
20260903174624 13 360 4.8 12.9 0.00 0.00 1.83 97 1008.8
20260903173924 13 360 3.2 12.9 0.00 0.00 1.83 97 1008.6
20260903173424 13 360 9.7 9.7 0.00 0.00 1.83 97 1008.6
20260903172924 13 42 8.0 11.3 0.00 0.00 1.83 97 1008.6
20260903172224 13 10 6.4 11.3 0.00 0.00 1.83 98 1008.5
20260903171524 13 26 4.8 6.4 0.00 0.00 1.83 99 1008.7
20260903171025 13 48 4.8 6.4 0.00 0.00 1.83 99 1008.6
20260903170524 12 17 3.2 6.4 0.00 0.00 1.83 99 1008.6
20260903165824 12 34 4.8 6.4 0.00 0.00 1.83 99 1008.5
20260903165324 12 42 4.8 6.4 0.00 0.00 1.83 99 1008.7
20260903164825 12 121 1.6 1.6 0.00 0.00 1.83 99 1008.6
20260903164324 12 121 0.0 3.2 0.00 0.00 1.83 98 1008.7
20260903163825 12 121 0.0 4.8 0.00 0.00 1.80 98 1008.5
20260903163325 12 121 0.0 6.4 0.00 0.00 1.70 98 1008.7
20260903162824 12 30 1.6 9.7 0.00 0.00 1.50 98 1008.5
20260903162325 12 32 4.8 12.9 0.00 0.00 1.32 98 1008.6
20260903161824 12 35 8.0 12.9 0.00 0.00 1.19 99 1008.5
20260903161325 12 17 11.3 11.3 0.00 0.00 1.17 99 1008.6
20260903160825 12 31 4.8 8.0 0.00 0.00 1.14 99 1008.7
20260903160124 12 24 4.8 6.4 0.00 0.00 1.14 99 1008.6
20260903155624 12 36 4.8 4.8 0.00 0.00 1.14 99 1008.6
20260903155124 12 324 3.2 3.2 0.00 0.00 1.14 99 1008.6
20260903154425 12 324 1.6 1.6 0.00 0.00 1.12 99 1008.7
20260903153724 12 324 0.0 3.2 0.00 0.00 1.09 99 1008.6
20260903153224 12 324 1.6 3.2 0.00 0.00 1.09 99 1008.5
20260903152724 12 324 0.0 1.6 0.00 0.00 1.09 99 1008.5
20260903152224 12 304 1.6 3.2 0.00 0.00 1.09 99 1008.5
20260903151525 12 304 0.0 3.2 0.00 0.00 1.09 99 1008.4
20260903151025 12 42 0.0 3.2 0.00 0.00 1.07 99 1008.3
20260903150525 12 41 3.2 3.2 0.00 0.00 1.07 99 1008.4
20260903150024 12 42 3.2 3.2 0.00 0.00 1.07 99 1008.4
20260903145524 12 42 0.0 1.6 0.00 0.00 1.07 99 1008.5
20260903145025 12 41 1.6 1.6 0.00 0.00 1.07 98 1008.4
20260903144524 12 41 0.0 1.6 0.00 0.00 1.07 98 1008.4
20260903144024 12 41 0.0 1.6 0.00 0.00 1.07 98 1008.3
20260903143125 12 41 1.6 3.2 0.00 0.00 1.07 98 1008.3
20260903142624 12 41 1.6 3.2 0.00 0.00 1.07 98 1008.2
20260903141924 12 46 0.0 3.2 0.00 0.00 1.07 98 1008.1
20260903141425 12 46 3.2 4.8 0.00 0.00 1.04 98 1008.1
20260903140924 12 38 3.2 4.8 0.00 0.00 1.04 98 1008.1
20260903140424 12 64 3.2 4.8 0.00 0.00 1.04 98 1008.1
20260903135725 12 69 1.6 3.2 0.00 0.00 1.02 98 1008.1
20260903135225 12 69 3.2 3.2 0.00 0.00 1.02 98 1008.1
20260903134724 12 59 1.6 12.9 0.00 0.00 1.02 98 1008.0
20260903134024 12 44 4.8 12.9 0.00 0.00 1.02 98 1007.8
20260903133324 12 34 4.8 8.0 0.00 0.00 0.97 98 1007.8
20260903132824 12 73 4.8 8.0 0.00 0.00 0.94 98 1007.9
20260903132325 12 53 6.4 11.3 0.00 0.00 0.91 98 1007.9
20260903131825 12 30 6.4 11.3 0.00 0.00 0.91 98 1007.9
20260903131324 12 34 3.2 8.0 0.00 0.00 0.91 98 1007.7
20260903130825 12 42 6.4 8.0 0.00 0.00 0.91 98 1007.7
20260903130125 12 27 6.4 8.0 0.00 0.00 0.89 98 1007.7
20260903125625 12 32 8.0 8.0 0.00 0.00 0.89 98 1007.6
20260903124924 12 29 4.8 8.0 0.00 0.00 0.89 98 1007.7
20260903124425 12 34 4.8 11.3 0.00 0.00 0.86 98 1007.7
20260903123925 12 54 3.2 11.3 0.00 0.00 0.84 98 1007.8
20260903123425 12 40 3.2 8.0 0.00 0.00 0.81 98 1007.7
20260903122925 12 24 8.0 9.7 0.00 0.00 0.76 98 1007.6
20260903122424 12 53 4.8 9.7 0.00 0.00 0.71 98 1007.8
20260903121924 12 44 4.8 6.4 0.00 0.00 0.69 98 1007.8
20260903121224 12 63 0.0 6.4 0.00 0.00 0.66 98 1007.7
20260903120725 12 46 4.8 6.4 0.00 0.00 0.66 98 1007.7
20260903120224 12 38 3.2 6.4 0.00 0.00 0.66 98 1007.8
20260903115724 12 32 3.2 4.8 0.00 0.00 0.66 98 1007.8
20260903115224 12 34 3.2 4.8 0.00 0.00 0.66 98 1007.8
20260903114725 12 34 3.2 3.2 0.00 0.00 0.66 98 1007.7
20260903114224 12 34 1.6 6.4 0.00 0.00 0.66 98 1007.6
20260903113724 12 33 3.2 6.4 0.00 0.00 0.66 98 1007.6
20260903113224 12 52 3.2 3.2 0.00 0.00 0.64 98 1007.6
20260903112724 12 52 3.2 4.8 0.00 0.00 0.64 98 1007.6
20260903112225 12 49 1.6 4.8 0.00 0.00 0.64 98 1007.6
20260903111724 12 52 3.2 8.0 0.00 0.00 0.64 98 1007.6
20260903111225 12 30 3.2 8.0 0.00 0.00 0.64 98 1007.6
20260903110725 12 20 3.2 6.4 0.00 0.00 0.64 98 1007.6
20260903110224 12 36 1.6 6.4 0.00 0.00 0.64 98 1007.5
20260903105725 12 20 6.4 8.0 0.00 0.00 0.61 98 1007.6
20260903105225 12 32 4.8 8.0 0.00 0.00 0.61 98 1007.6
20260903104724 12 17 3.2 4.8 0.00 0.00 0.58 98 1007.6
20260903104224 12 31 3.2 3.2 0.00 0.00 0.58 98 1007.6
20260903103724 12 26 1.6 11.3 0.00 0.00 0.56 98 1007.7
20260903103224 12 26 3.2 11.3 0.00 0.00 0.53 97 1007.7
20260903102725 12 15 11.3 11.3 0.00 0.00 0.48 97 1007.7
20260903102225 12 40 8.0 8.0 0.00 0.00 0.43 97 1007.7
20260903101724 12 51 6.4 6.4 0.00 0.00 0.36 98 1007.8
20260903100825 12 63 4.8 6.4 0.00 0.00 0.25 97 1007.7
20260903100324 12 54 4.8 6.4 0.00 0.00 0.20 97 1007.8
20260903095824 12 63 6.4 6.4 0.00 0.00 0.18 97 1007.7
20260903095325 12 43 4.8 6.4 0.00 0.00 0.15 97 1007.7
20260903094024 12 65 4.8 8.0 0.00 0.00 0.15 97 1007.6
20260903093324 12 49 4.8 8.0 0.00 0.00 0.13 97 1007.7
20260903092825 12 49 8.0 8.0 0.00 0.00 0.10 97 1007.7
20260903092324 12 16 3.2 6.4 0.00 0.00 0.10 97 1007.8
20260903091624 12 42 4.8 8.0 0.00 0.00 0.10 97 1007.8
20260903091124 12 42 4.8 8.0 0.00 0.00 0.10 97 1007.8
20260903090624 12 28 6.4 11.3 0.00 0.00 0.10 97 1007.8
20260903090124 12 59 3.2 11.3 0.00 0.00 0.10 97 1007.8
20260903085624 12 49 6.4 9.7 0.00 0.00 0.10 97 1007.8
20260903084924 12 40 4.8 6.4 0.00 0.00 0.05 96 1007.9
20260903084425 12 52 4.8 8.0 0.00 0.00 0.05 96 1007.8
20260903083924 12 58 4.8 8.0 0.00 0.00 0.03 96 1007.9
20260903083425 12 50 3.2 6.4 0.00 0.00 0.00 96 1007.9
20260903082924 12 40 4.8 6.4 0.00 0.00 0.00 96 1007.9
20260903082225 12 44 4.8 11.3 0.00 0.00 0.00 96 1007.8
20260903081725 12 47 4.8 11.3 0.00 0.00 0.00 96 1007.9
20260903081224 12 82 11.3 11.3 0.00 0.00 0.00 97 1007.9
20260903080725 12 50 3.2 8.0 0.00 0.00 0.00 97 1007.9
20260903080225 12 71 3.2 9.7 0.00 0.00 0.00 97 1007.9
20260903075525 12 57 4.8 9.7 0.00 0.00 0.00 97 1007.9
20260903075024 12 42 4.8 9.7 0.00 0.00 0.00 97 1007.9
20260903074527 12 47 4.8 9.7 0.00 0.00 0.00 97 1007.8
20260903074025 12 42 6.4 11.3 0.00 0.00 0.00 97 1007.7
20260903073325 12 40 4.8 11.3 0.00 0.00 0.00 97 1007.8
20260903072625 12 13 11.3 11.3 0.00 0.00 0.00 98 1007.8
20260903072125 11 25 8.0 8.0 0.00 0.00 0.00 98 1007.9
20260903071624 11 17 1.6 6.4 0.00 0.00 0.00 98 1007.9
20260903070924 11 11 4.8 6.4 0.00 0.00 0.00 98 1007.8
20260903070424 11 5 4.8 6.4 0.00 0.00 0.00 98 1007.9
20260903065924 11 344 4.8 6.4 0.00 0.00 0.64 98 1007.9
20260903065424 11 348 6.4 8.0 0.00 0.00 0.64 98 1007.8
20260903064925 11 5 4.8 8.0 0.00 0.00 0.64 98 1007.9
20260903064424 11 360 8.0 8.0 0.00 0.00 0.64 99 1007.9
20260903063925 11 360 3.2 4.8 0.00 0.00 0.64 99 1007.9
20260903063425 11 360 1.6 4.8 0.00 0.00 0.64 99 1008.0
20260903062924 11 360 4.8 4.8 0.00 0.00 0.64 99 1007.9
20260903062424 11 360 3.2 4.8 0.00 0.00 0.64 99 1008.0
20260903061925 11 360 4.8 4.8 0.00 0.00 0.64 99 1008.0
20260903061425 11 360 4.8 4.8 0.00 0.00 0.64 99 1007.9
20260903060724 10 360 1.6 1.6 0.00 0.00 0.64 99 1008.0
20260903060225 10 360 0.0 1.6 0.00 0.00 0.64 98 1008.0
20260903055724 10 360 0.0 3.2 0.00 0.00 0.64 98 1008.0
20260903055224 10 360 1.6 3.2 0.00 0.00 0.64 98 1008.0
20260903054724 10 360 3.2 3.2 0.00 0.00 0.64 98 1007.9
20260903054024 10 360 1.6 3.2 0.00 0.00 0.64 98 1008.0
20260903053325 10 360 3.2 3.2 0.00 0.00 0.64 98 1008.1
20260903052824 10 360 0.0 3.2 0.00 0.00 0.64 98 1008.1
20260903052325 10 360 0.0 3.2 0.00 0.00 0.64 98 1008.0
20260903051625 10 360 0.0 1.6 0.00 0.00 0.64 98 1008.0
20260903051124 10 360 0.0 1.6 0.00 0.00 0.64 98 1008.1
20260903050624 11 360 1.6 3.2 0.00 0.00 0.64 98 1008.1
20260903050124 11 360 1.6 4.8 0.00 0.00 0.64 98 1008.1
20260903045624 11 360 3.2 4.8 0.00 0.00 0.64 98 1008.0
20260903045124 10 360 4.8 4.8 0.00 0.00 0.64 98 1008.0
20260903044624 10 360 1.6 1.6 0.00 0.00 0.64 98 1008.0
20260903044124 10 360 0.0 4.8 0.00 0.00 0.64 97 1008.0
20260903043425 10 158 3.2 4.8 0.00 0.00 0.64 97 1007.9
20260903042724 10 360 1.6 3.2 0.00 0.00 0.64 97 1007.8
20260903042224 10 360 1.6 4.8 0.00 0.00 0.64 96 1007.8
20260903041524 10 360 1.6 4.8 0.00 0.00 0.64 97 1007.7
20260903041025 10 159 1.6 6.4 0.00 0.00 0.64 96 1007.6
20260903040524 11 360 3.2 6.4 0.00 0.00 0.64 95 1007.6
20260903040025 11 360 3.2 3.2 0.00 0.00 0.64 95 1007.6
20260903035525 11 360 0.0 1.6 0.00 0.00 0.64 96 1007.5
20260903035024 11 360 0.0 1.6 0.00 0.00 0.64 96 1007.3
20260903034524 11 159 0.0 3.2 0.00 0.00 0.64 95 1007.3
20260903034024 11 159 0.0 3.2 0.00 0.00 0.64 95 1007.3
20260903033324 12 159 1.6 1.6 0.00 0.00 0.64 93 1007.1
20260903032824 12 159 0.0 3.2 0.00 0.00 0.64 93 1007.0
20260903032125 12 159 1.6 6.4 0.00 0.00 0.64 93 1007.0
20260903031425 12 159 3.2 6.4 0.00 0.00 0.64 91 1007.0
20260903030924 13 159 3.2 3.2 0.00 0.00 0.64 91 1007.0
20260903030025 13 159 0.0 3.2 0.00 0.00 0.64 90 1007.0
20260903025524 13 159 0.0 1.6 0.00 0.00 0.64 88 1006.8
20260903025024 13 159 0.0 1.6 0.00 0.00 0.64 87 1006.7
20260903024524 14 160 1.6 3.2 0.00 0.00 0.64 86 1006.7
20260903023825 14 160 0.0 3.2 0.00 0.00 0.64 86 1006.8
20260903023325 14 145 1.6 3.2 0.00 0.00 0.64 86 1006.8
20260903022624 15 145 0.0 4.8 0.00 0.00 0.64 86 1006.8
20260903022125 15 146 0.0 4.8 0.00 0.00 0.64 87 1006.6
20260903021624 15 146 0.0 1.6 0.00 0.00 0.64 85 1006.7
20260903021125 15 146 1.6 1.6 0.00 0.00 0.64 84 1006.6
20260903020624 15 146 0.0 3.2 0.00 0.00 0.64 83 1006.6
20260903020125 15 146 0.0 3.2 0.00 0.00 0.64 82 1006.6
20260903015624 16 165 0.0 3.2 0.00 0.00 0.64 81 1006.6
20260903015124 16 158 1.6 3.2 0.00 0.00 0.64 82 1006.5
20260903014625 16 158 1.6 1.6 0.00 0.00 0.64 83 1006.4
20260903014124 16 157 0.0 1.6 0.00 0.00 0.64 82 1006.5
20260903013624 16 157 0.0 1.6 0.00 0.00 0.64 81 1006.4
20260903013124 16 158 0.0 1.6 0.00 0.00 0.64 81 1006.4
20260903012624 16 157 1.6 3.2 0.00 0.00 0.64 82 1006.4
20260903012124 16 157 0.0 3.2 0.00 0.00 0.64 81 1006.3
20260903011624 16 158 0.0 3.2 0.00 0.00 0.64 83 1006.3
20260903010724 16 158 0.0 6.4 0.00 0.00 0.64 82 1006.2
20260903010225 16 158 1.6 9.7 0.00 0.00 0.64 81 1006.3
20260903005724 16 165 6.4 9.7 0.00 0.00 0.64 79 1006.2
20260903005225 17 184 1.6 6.4 0.00 0.00 0.64 81 1006.2
20260903004725 17 190 4.8 4.8 0.00 0.00 0.64 80 1006.1
20260903004224 17 360 3.2 4.8 0.00 0.00 0.64 80 1006.0
20260903003724 17 155 1.6 3.2 0.00 0.00 0.64 81 1006.0
20260903003225 17 171 1.6 4.8 0.00 0.00 0.64 80 1006.0
20260903002724 17 202 3.2 4.8 0.00 0.00 0.64 80 1005.9
20260903002224 17 150 4.8 8.0 0.00 0.00 0.64 79 1005.9
20260903001524 18 173 8.0 8.0 0.00 0.00 0.64 78 1005.9
20260903001024 17 144 6.4 6.4 0.00 0.00 0.64 79 1005.9
20260903000525 17 165 0.0 4.8 0.00 0.00 0.64 80 1005.8
20260903000024 17 157 3.2 4.8 0.00 0.00 0.64 79 1005.7
20260902235324 17 140 1.6 4.8 0.00 0.00 0.64 80 1005.8
20260902234825 17 168 3.2 3.2 0.00 0.00 0.64 80 1005.7
20260902234324 17 160 1.6 4.8 0.00 0.00 0.64 83 1005.8
20260902233624 17 141 4.8 6.4 0.00 0.00 0.64 86 1005.8
20260902233125 17 169 6.4 6.4 0.00 0.00 0.64 86 1005.8
20260902232624 17 180 1.6 6.4 0.00 0.00 0.64 85 1005.7
20260902232125 16 163 6.4 6.4 0.00 0.00 0.64 88 1005.7
20260902231626 16 147 0.0 8.0 0.00 0.00 0.64 89 1005.7
20260902231124 16 164 3.2 8.0 0.00 0.00 0.64 90 1005.7
20260902230424 16 113 1.6 16.1 0.00 0.00 0.64 90 1005.6
20260902225924 16 144 3.2 16.1 0.00 0.00 0.64 88 1005.6
20260902225424 16 111 3.2 12.9 0.00 0.00 0.64 88 1005.6
20260902224524 17 174 8.0 11.3 0.00 0.00 0.64 89 1005.3
20260902224025 16 178 1.6 3.2 0.00 0.00 0.64 93 1005.1
20260902223524 16 146 3.2 4.8 0.00 0.00 0.64 96 1005.1
20260902223024 16 333 1.6 4.8 0.00 0.00 0.64 96 1005.0
20260902222524 16 132 1.6 4.8 0.00 0.00 0.64 98 1005.1
20260902222024 15 360 4.8 4.8 0.00 0.00 0.64 97 1005.1
20260902221524 15 360 3.2 9.7 0.00 0.00 0.64 97 1005.1
20260902221024 15 164 1.6 9.7 0.00 0.00 0.64 98 1005.0
20260902215924 14 173 1.6 3.2 0.00 0.00 0.64 97 1005.1
20260902215425 14 161 3.2 3.2 0.00 0.00 0.64 97 1005.0
20260902214925 14 156 1.6 8.0 0.00 0.00 0.61 97 1005.0
20260902214425 14 155 1.6 11.3 0.00 0.00 0.56 95 1005.1
20260902213925 15 190 4.8 14.5 0.00 0.00 0.10 96 1005.2
20260902213424 15 74 6.4 19.3 0.00 0.00 0.03 96 1004.4
20260902212925 15 93 6.4 19.3 0.00 0.00 0.03 95 1004.3
20260902212425 15 85 11.3 19.3 0.00 0.00 0.03 95 1004.3
20260902211925 15 84 19.3 19.3 0.00 0.00 0.03 96 1004.3
20260902211425 15 57 11.3 14.5 0.00 0.00 0.03 97 1004.3
20260902210924 15 74 8.0 20.9 0.00 0.00 0.03 97 1004.2
20260902210225 14 21 12.9 20.9 0.00 0.00 0.03 96 1004.1
20260902205724 14 65 6.4 11.3 0.00 0.00 0.03 96 1004.0
20260902205024 14 43 6.4 11.3 0.00 0.00 0.03 96 1004.1
20260902204524 14 45 9.7 11.3 0.00 0.00 0.03 96 1003.9
20260902204024 14 81 11.3 11.3 0.00 0.00 0.03 96 1003.8
20260902203524 14 28 9.7 14.5 0.00 0.00 0.03 95 1003.6
20260902203025 14 76 8.0 14.5 0.00 0.00 0.03 95 1003.6
20260902202525 14 44 8.0 14.5 0.00 0.00 0.03 96 1003.6
20260902202025 14 83 11.3 11.3 0.00 0.00 0.03 96 1003.5
20260902201525 14 56 4.8 20.9 0.00 0.00 0.03 95 1003.7
20260902201024 14 26 4.8 20.9 0.00 0.00 0.03 95 1003.7
20260902200524 14 77 20.9 20.9 0.00 0.00 0.03 95 1003.6
20260902200024 14 5 16.1 17.7 0.00 0.00 0.03 95 1003.8
20260902195524 14 89 11.3 17.7 0.00 0.00 0.03 94 1003.8
20260902195024 14 86 12.9 17.7 0.00 0.00 0.00 94 1003.7
20260902194325 14 22 8.0 16.1 0.00 0.00 0.00 94 1003.8
20260902193825 14 48 14.5 19.3 0.00 0.00 0.00 94 1004.0